Location: Newark
(35.6799°N, 139.7636°E)
Time: 17:27:05
(UTC+00:00)

Explorer 11/Cluster Stage 4 - Pass Details

Date: 18 December 2019
Orbit: 467 x 1259 km, 28.8° (Epoch: 25 January)

Event Time Altitude Azimuth Distance (km) Brightness Sun altitude
Exits shadow 19:10:22 - 200° (SSW) 3,479 9.8 -30.6°
Reaches altitude 10° 19:12:05 10° 192° (SSW) 3,110 9.6 -30.2°
Maximum altitude 19:17:16 19° 150° (SSE) 2,578 9.5 -29.2°
Drops below altitude 10° 19:22:37 10° 110° (ESE) 3,230 10.6 -28.1°
Sets 19:26:31 0° 94° (E) 4,176 11.6 -27.3°
